Showing default

CARTOSAT 2C, 41599

Orbit data source: Space-Track

CARTOSAT 2C, 41599 is a payload satellite owned by ISRO (IN) in SSO that was launched on Wed, 22 Jun 2016 UTC via a PSLV-XL launch vehicle from the Sirharikota (SRI). Payloads include a variety of satellites, spacecraft, and rockets equipped with specific instruments for various scientific and technological missions. These include communications satellites like Starlink; space stations such as the ISS; scientific satellites like the Hubble; Earth observation satellites from companies like Planet Labs, Umbra, and HawkEye 360; GPS; miniature CubeSats for education and research; and military/defense satellites.

Loading next visibility...
CARTOSAT 2C details
Identifier
41599, 2016-040A
Orbit
SSO
Last TLE update7 hours ago
Origin
Flag of INISRO (IN / IND)
ManufacturerISRO
MissionOperational Civil Imaging
Bus & MotorIRS-2, AOCS
Mass727 kg wet, ~600 kg dry
Launch date (UTC)
2016-06-22 (9 years ago)
Launch vehicle
PSLV-XL
Launch site
Sirharikota (SRI)
Object type
Payload
Rocket body
Debris
Shape & HBRHex Cyl + 2 Pan, 6 m
Radar Cross Section6.456 m², Large (>1 m²)

Expand to show TLE details & history

TLE from 7 hours ago
0 CARTOSAT 2C
1 41599U 16040A   24361.14996017  .00009666  00000-0  46219-3 0  9994
2 41599  97.4499  57.9058 0012193 203.1772 156.8914 15.19142251472024
Epoch: 2024-12-26T03:35Z
Definitive object data (Epoch: 2024-12-26T03:35:56.558Z)
Latitude-0.00005°
Longitude-91.21334°
Altitude519.246 km
Speed7.6 km/s
True Right ascension03h 51m 37s
True Declination0° 00' 00"
Sunlit
Object was in full shadow at TLE epoch
Visualization TLE readout
Latitude53.29919°
Longitude-100.99123°
Altitude524.333 km
Speed7.602 km/s
Apparent Right ascension00h 03m 41s
Apparent Declination12° 12' 36"
Sunlit
Object is in full shadow
Visualization observer readout
Local Sidereal Time09:30:40
Azimuth317.252° NNW
Elevation-26.934°
Doppler factor1
Orbital elements
Apogee altitude513.794 km
Perigee altitude497.007 km
Semi-major axis6,883.537 km
Eccentricity0.0012193
Inclination97.4499°
RAAN57.9058°
Arg. of periapsis203.1772°
True anomaly156.94616°
Mean anomaly156.8914°
Eccentric anomaly156.91879°
Mean motion3.80037 °/min
BSTAR0.00046219
Orbital period94.73 mins
Loading maneuver chart data...
Loading historical data...
Loading historical data...
Loading historical data...
Loading historical data...
Loading historical data...
Loading historical data...
Loading historical data...

CARTOSAT 2C Visibility forecast

Observer location: undefined°, undefined

Span
Click to sort rows by Start time (UTC) header in descending order
Start Az.
Max El. time (UTC)
Max El. Az.
Max El.
End time (UTC)
End Az.
6 mins2024-12-26 16:48:32.100Z15.757° NNE2024-12-26 16:51:32.100Z83.854° E44.214°2024-12-26 16:54:32.100Z187.406° SSW
4 mins2024-12-27 03:28:32.100Z106.997° ESE2024-12-27 03:29:32.100Z80.308° E26.017°2024-12-27 03:32:32.100Z14.907° NNE
|